Location: Unspecified
(0.0000°N, 0.0000°E)
Time: 15:39:01
(UTC+00:00)

ISS - Pass Details

Date: 08 September 2024
Orbit: 414 x 424 km, 51.6° (Epoch: 15 September)

Event Time Altitude Azimuth Distance (km) Brightness Sun altitude
Rises 18:20:47 0° 223° (SW) 2,343 0.6 -5.8°
Reaches altitude 10° 18:22:54 10° 228° (SW) 1,479 -0.3 -6.3°
Maximum altitude 18:26:09 51° 305° (NW) 523 -2.8 -7.1°
Drops below altitude 10° 18:29:23 10° 23° (NNE) 1,476 -1.2 -8.0°
Sets 18:31:30 0° 28° (NNE) 2,337 -0.2 -8.5°
